Location: Newark
(36.9825°N, 30.4647°E)
Time: 08:13:50
(UTC+00:00)

OTV 5 (USA 277) - Visible Passes

Search period start: 14 October 2019 00:00
Search period end: 24 October 2019 00:00
Orbit: 310 x 324 km, 54.5° (Epoch: 08 October)

Date Brightness Start Highest point End Pass type
(mag) Time Alt. Az. Time Alt. Az. Time Alt. Az.
18 Oct ? 03:05:54 10° N 03:07:50 17° NE 03:09:47 10° E visible
19 Oct ? 03:19:54 10° NNW 03:22:33 44° NE 03:25:10 10° ESE visible
20 Oct ? 02:03:18 11° NE 02:03:18 11° NE 02:03:44 10° ENE visible
20 Oct ? 03:34:25 10° NW 03:37:04 48° SW 03:39:42 10° SSE visible
21 Oct ? 02:18:03 23° ENE 02:18:03 23° ENE 02:19:42 10° E visible
22 Oct ? 02:32:55 36° SE 02:32:55 36° SE 02:34:39 10° SE visible
23 Oct ? 02:47:56 16° S 02:47:56 16° S 02:48:44 10° S visible
